SL-16 DEB, 22368

Orbit data source: Space-Track

SL-16 DEB, 22368 is space debris in LEO originally from a launch on Fri, 25 Dec 1992 UTC launched from the Tyuratam Missile And Space Complex (TTMTR). Debris objects in space refer to the collection of defunct objects orbiting the Earth. Examples of debris include non-operational satellites, rocket bodies, and fragments generated from explosions, collisions, or faulty payload assembly.

Loading next visibility...
Identifier
22368, 1992-093BH
Orbit
LEO
Country
Flag of CISCIS
Related business
Manufacturer
Unknown
Mission
Spacecraft
Bus & Motor
Unknown
Mass
Unknown
Launch date (UTC)
1992-12-25 (33 years ago)
Launch vehicle
Unknown
Launch site
Tyuratam Missile And Space Complex (TTMTR)
Object type
Payload
Rocket body
Debris
Shape & HBR
Unknown shape, 0.2 m
Radar Cross Section
Medium (>0.1 m² and <1 m²)

Expand to show TLE details & history
Last TLE update: 10 hours ago

TLE from 10 hours ago
0 SL-16 DEB
1 22368U 92093BH  25298.02247117  .00000947  00000-0  23690-3 0  9997
2 22368  71.2453  37.9221 0115376 286.7299 247.1602 14.50214375708015
Epoch: 2025-10-25T00:32Z
TLE epoch observation values (Epoch: 2025-10-25T00:32:21.509Z)
Latitude
6.86524°
Longitude
173.84305°
Altitude
759.388 km
Speed
7.458 km/s
True Right ascension
14h 22m 21s
True Declination
6° 49' 28"
Sunlit
Object was in daylight at epoch
Visualization orbit readout
Latitude
Unknown
Longitude
Unknown
Altitude
Unknown
Speed
Unknown
Apparent Right ascension
Unknown
Apparent Declination
Unknown
Sunlit
N/A
Visualization observer readout
Local Sidereal Time
05:54:35
Azimuth
Unknown
Elevation
Unknown
Doppler factor
Unknown
Orbital elements
Apogee altitude
804.742 km
Perigee altitude
640.886 km
Semi-major axis
7,100.951 km
Eccentricity
0.01154
Inclination
71.2453°
RAAN
37.9221°
Arg. of periapsis
286.7299°
True anomaly
245.94862°
Mean anomaly
247.1602°
Eccentric anomaly
246.55373°
Mean motion
3.62717 °/min
Orbital period
99.25 mins
BSTAR
0.0002369
Loading maneuver chart data...
Computing Atmospheric mass density...

Documentation

Showing up to 5 results
|